Year,Month,Day,Hour,Minute,Value (Times are PST for temperature in C)
2017,12,09,00,00,2.00
2017,12,09,00,01,1.90
2017,12,09,00,02,1.90
2017,12,09,00,03,1.90
2017,12,09,00,04,1.90
2017,12,09,00,05,1.80
2017,12,09,00,06,1.80
2017,12,09,00,07,1.80
2017,12,09,00,08,1.80
2017,12,09,00,09,1.80
2017,12,09,00,10,1.80
2017,12,09,00,11,1.80
2017,12,09,00,12,1.80
2017,12,09,00,13,1.80
2017,12,09,00,14,1.80
2017,12,09,00,15,1.80
2017,12,09,00,16,1.80
2017,12,09,00,17,1.80
2017,12,09,00,18,1.80
2017,12,09,00,19,1.80
2017,12,09,00,20,1.80
2017,12,09,00,21,1.80
2017,12,09,00,22,1.80
2017,12,09,00,23,1.80
2017,12,09,00,24,1.80
2017,12,09,00,25,1.80
2017,12,09,00,26,1.80
2017,12,09,00,27,1.80
2017,12,09,00,28,1.80
2017,12,09,00,29,1.80
2017,12,09,00,30,1.80
2017,12,09,00,31,1.80
2017,12,09,00,32,1.80
2017,12,09,00,33,1.80
2017,12,09,00,34,1.80
2017,12,09,00,35,1.80
2017,12,09,00,36,1.80
2017,12,09,00,37,1.80
2017,12,09,00,38,1.80
2017,12,09,00,39,1.80
2017,12,09,00,40,1.70
2017,12,09,00,41,1.70
2017,12,09,00,42,1.70
2017,12,09,00,43,1.70
2017,12,09,00,44,1.70
2017,12,09,00,45,1.70
2017,12,09,00,46,1.70
2017,12,09,00,47,1.60
2017,12,09,00,48,1.60
2017,12,09,00,49,1.60
2017,12,09,00,50,1.60
2017,12,09,00,51,1.60
2017,12,09,00,52,1.50
2017,12,09,00,53,1.50
2017,12,09,00,54,1.50
2017,12,09,00,55,1.40
2017,12,09,00,56,1.40
2017,12,09,00,57,1.30
2017,12,09,00,58,1.30
2017,12,09,00,59,1.30
2017,12,09,01,00,1.30
2017,12,09,01,01,1.30
2017,12,09,01,02,1.30
2017,12,09,01,03,1.20
2017,12,09,01,04,1.20
2017,12,09,01,05,1.20
2017,12,09,01,06,1.20
2017,12,09,01,07,1.20
2017,12,09,01,08,1.20
2017,12,09,01,09,1.20
2017,12,09,01,10,1.20
2017,12,09,01,11,1.20
2017,12,09,01,12,1.10
2017,12,09,01,13,1.10
2017,12,09,01,14,1.10
2017,12,09,01,15,1.10
2017,12,09,01,16,1.10
2017,12,09,01,17,1.10
2017,12,09,01,18,1.10
2017,12,09,01,19,1.10
2017,12,09,01,20,1.00
2017,12,09,01,21,1.00
2017,12,09,01,22,1.00
2017,12,09,01,23,0.90
2017,12,09,01,24,0.90
2017,12,09,01,25,0.90
2017,12,09,01,26,0.90
2017,12,09,01,27,0.90
2017,12,09,01,28,1.00
2017,12,09,01,29,1.00
2017,12,09,01,30,1.00
2017,12,09,01,31,1.00
2017,12,09,01,32,0.90
2017,12,09,01,33,0.90
2017,12,09,01,34,0.90
2017,12,09,01,35,0.90
2017,12,09,01,36,0.90
2017,12,09,01,37,0.90
2017,12,09,01,38,0.90
2017,12,09,01,39,0.90
2017,12,09,01,40,0.90
2017,12,09,01,41,0.90
2017,12,09,01,42,0.90
2017,12,09,01,43,0.90
2017,12,09,01,44,1.00
2017,12,09,01,45,1.00
2017,12,09,01,46,1.00
2017,12,09,01,47,1.10
2017,12,09,01,48,1.10
2017,12,09,01,49,1.10
2017,12,09,01,50,1.10
2017,12,09,01,51,1.10
2017,12,09,01,52,1.10
2017,12,09,01,53,1.20
2017,12,09,01,54,1.20
2017,12,09,01,55,1.20
2017,12,09,01,56,1.20
2017,12,09,01,57,1.20
2017,12,09,01,58,1.20
2017,12,09,01,59,1.20
2017,12,09,02,00,1.30
2017,12,09,02,01,1.30
2017,12,09,02,02,1.30
2017,12,09,02,03,1.30
2017,12,09,02,04,1.30
2017,12,09,02,05,1.30
2017,12,09,02,06,1.30
2017,12,09,02,07,1.30
2017,12,09,02,08,1.30
2017,12,09,02,09,1.30
2017,12,09,02,10,1.30
2017,12,09,02,11,1.30
2017,12,09,02,12,1.30
2017,12,09,02,13,1.30
2017,12,09,02,14,1.30
2017,12,09,02,15,1.30
2017,12,09,02,16,1.30
2017,12,09,02,17,1.30
2017,12,09,02,18,1.30
2017,12,09,02,19,1.30
2017,12,09,02,20,1.30
2017,12,09,02,21,1.20
2017,12,09,02,22,1.20
2017,12,09,02,23,1.20
2017,12,09,02,24,1.20
2017,12,09,02,25,1.20
2017,12,09,02,26,1.20
2017,12,09,02,27,1.20
2017,12,09,02,28,1.10
2017,12,09,02,29,1.10
2017,12,09,02,30,1.00
2017,12,09,02,31,1.00
2017,12,09,02,32,0.90
2017,12,09,02,33,0.90
2017,12,09,02,34,0.80
2017,12,09,02,35,0.80
2017,12,09,02,36,0.80
2017,12,09,02,37,0.80
2017,12,09,02,38,0.90
2017,12,09,02,39,0.90
2017,12,09,02,40,0.90
2017,12,09,02,41,0.80
2017,12,09,02,42,0.80
2017,12,09,02,43,0.80
2017,12,09,02,44,0.80
2017,12,09,02,45,0.80
2017,12,09,02,46,0.70
2017,12,09,02,47,0.70
2017,12,09,02,48,0.70
2017,12,09,02,49,0.70
2017,12,09,02,50,0.70
2017,12,09,02,51,0.70
2017,12,09,02,52,0.60
2017,12,09,02,53,0.60
2017,12,09,02,54,0.60
2017,12,09,02,55,0.60
2017,12,09,02,56,0.60
2017,12,09,02,57,0.70
2017,12,09,02,58,0.70
2017,12,09,02,59,0.70
2017,12,09,03,00,0.70
2017,12,09,03,01,0.70
2017,12,09,03,02,0.70
2017,12,09,03,03,0.70
2017,12,09,03,04,0.70
2017,12,09,03,05,0.70
2017,12,09,03,06,0.70
2017,12,09,03,07,0.60
2017,12,09,03,08,0.60
2017,12,09,03,09,0.70
2017,12,09,03,10,0.70
2017,12,09,03,11,0.70
2017,12,09,03,12,0.70
2017,12,09,03,13,0.70
2017,12,09,03,14,0.70
2017,12,09,03,15,0.70
2017,12,09,03,16,0.70
2017,12,09,03,17,0.70
2017,12,09,03,18,0.70
2017,12,09,03,19,0.70
2017,12,09,03,20,0.70
2017,12,09,03,21,0.60
2017,12,09,03,22,0.60
2017,12,09,03,23,0.60
2017,12,09,03,24,0.60
2017,12,09,03,25,0.60
2017,12,09,03,26,0.60
2017,12,09,03,27,0.60
2017,12,09,03,28,0.60
2017,12,09,03,29,0.60
2017,12,09,03,30,0.60
2017,12,09,03,31,0.60
2017,12,09,03,32,0.60
2017,12,09,03,33,0.50
2017,12,09,03,34,0.50
2017,12,09,03,35,0.50
2017,12,09,03,36,0.40
2017,12,09,03,37,0.40
2017,12,09,03,38,0.40
2017,12,09,03,39,0.30
2017,12,09,03,40,0.30
2017,12,09,03,41,0.30
2017,12,09,03,42,0.30
2017,12,09,03,43,0.30
2017,12,09,03,44,0.30
2017,12,09,03,45,0.40
2017,12,09,03,46,0.40
2017,12,09,03,47,0.40
2017,12,09,03,48,0.40
2017,12,09,03,49,0.50
2017,12,09,03,50,0.50
2017,12,09,03,51,0.50
2017,12,09,03,52,0.50
2017,12,09,03,53,0.50
2017,12,09,03,54,0.60
2017,12,09,03,55,0.60
2017,12,09,03,56,0.60
2017,12,09,03,57,0.60
2017,12,09,03,58,0.70
2017,12,09,03,59,0.70
2017,12,09,04,00,0.70
2017,12,09,04,01,0.80
2017,12,09,04,02,0.80
2017,12,09,04,03,0.80
2017,12,09,04,04,0.80
2017,12,09,04,05,0.80
2017,12,09,04,06,0.80
2017,12,09,04,07,0.80
2017,12,09,04,08,0.80
2017,12,09,04,09,0.80
2017,12,09,04,10,0.80
2017,12,09,04,11,0.80
2017,12,09,04,12,0.80
2017,12,09,04,13,0.80
2017,12,09,04,14,0.80
2017,12,09,04,15,0.80
2017,12,09,04,16,0.80
2017,12,09,04,17,0.80
2017,12,09,04,18,0.80
2017,12,09,04,19,0.70
2017,12,09,04,20,0.70
2017,12,09,04,21,0.70
2017,12,09,04,22,0.70
2017,12,09,04,23,0.70
2017,12,09,04,24,0.80
2017,12,09,04,25,0.80
2017,12,09,04,26,0.80
2017,12,09,04,27,0.80
2017,12,09,04,28,0.80
2017,12,09,04,29,0.80
2017,12,09,04,30,0.80
2017,12,09,04,31,0.90
2017,12,09,04,32,0.90
2017,12,09,04,33,0.90
2017,12,09,04,34,0.90
2017,12,09,04,35,0.90
2017,12,09,04,36,0.90
2017,12,09,04,37,0.90
2017,12,09,04,38,0.90
2017,12,09,04,39,1.00
2017,12,09,04,40,1.00
2017,12,09,04,41,1.00
2017,12,09,04,42,1.00
2017,12,09,04,43,1.00
2017,12,09,04,44,1.10
2017,12,09,04,45,1.10
2017,12,09,04,46,1.10
2017,12,09,04,47,1.10
2017,12,09,04,48,1.10
2017,12,09,04,49,1.10
2017,12,09,04,50,1.10
2017,12,09,04,51,1.10
2017,12,09,04,52,1.10
2017,12,09,04,53,1.10
2017,12,09,04,54,1.10
2017,12,09,04,55,1.10
2017,12,09,04,56,1.10
2017,12,09,04,57,1.10
2017,12,09,04,58,1.10
2017,12,09,04,59,1.10
2017,12,09,05,00,1.00
2017,12,09,05,01,1.00
2017,12,09,05,02,1.00
2017,12,09,05,03,1.00
2017,12,09,05,04,0.90
2017,12,09,05,05,0.90
2017,12,09,05,06,0.90
2017,12,09,05,07,0.90
2017,12,09,05,08,0.80
2017,12,09,05,09,0.80
2017,12,09,05,10,0.80
2017,12,09,05,11,0.80
2017,12,09,05,12,0.80
2017,12,09,05,13,0.80
2017,12,09,05,14,0.80
2017,12,09,05,15,0.90
2017,12,09,05,16,0.90
2017,12,09,05,17,0.90
2017,12,09,05,18,0.90
2017,12,09,05,19,0.90
2017,12,09,05,20,0.90
2017,12,09,05,21,0.90
2017,12,09,05,22,0.90
2017,12,09,05,23,0.90
2017,12,09,05,24,0.90
2017,12,09,05,25,0.90
2017,12,09,05,26,0.80
2017,12,09,05,27,0.80
2017,12,09,05,28,0.80
2017,12,09,05,29,0.80
2017,12,09,05,30,0.80
2017,12,09,05,31,0.80
2017,12,09,05,32,0.70
2017,12,09,05,33,0.70
2017,12,09,05,34,0.70
2017,12,09,05,35,0.70
2017,12,09,05,36,0.70
2017,12,09,05,37,0.70
2017,12,09,05,38,0.70
2017,12,09,05,39,0.70
2017,12,09,05,40,0.70
2017,12,09,05,41,0.60
2017,12,09,05,42,0.60
2017,12,09,05,43,0.60
2017,12,09,05,44,0.60
2017,12,09,05,45,0.60
2017,12,09,05,46,0.50
2017,12,09,05,47,0.50
2017,12,09,05,48,0.60
2017,12,09,05,49,0.60
2017,12,09,05,50,0.60
2017,12,09,05,51,0.60
2017,12,09,05,52,0.70
2017,12,09,05,53,0.70
2017,12,09,05,54,0.70
2017,12,09,05,55,0.70
2017,12,09,05,56,0.70
2017,12,09,05,57,0.70
2017,12,09,05,58,0.70
2017,12,09,05,59,0.60
2017,12,09,06,00,0.60
2017,12,09,06,01,0.60
2017,12,09,06,02,0.60
2017,12,09,06,03,0.60
2017,12,09,06,04,0.60
2017,12,09,06,05,0.60
2017,12,09,06,06,0.60
2017,12,09,06,07,0.60
2017,12,09,06,08,0.60
2017,12,09,06,09,0.60
2017,12,09,06,10,0.60
2017,12,09,06,11,0.60
2017,12,09,06,12,0.60
2017,12,09,06,13,0.60
2017,12,09,06,14,0.60
2017,12,09,06,15,0.60
2017,12,09,06,16,0.60
2017,12,09,06,17,0.60
2017,12,09,06,18,0.60
2017,12,09,06,19,0.60
2017,12,09,06,20,0.60
2017,12,09,06,21,0.60
2017,12,09,06,22,0.60
2017,12,09,06,23,0.60
2017,12,09,06,24,0.60
2017,12,09,06,25,0.60
2017,12,09,06,26,0.60
2017,12,09,06,27,0.60
2017,12,09,06,28,0.60
2017,12,09,06,29,0.60
2017,12,09,06,30,0.60
2017,12,09,06,31,0.60
2017,12,09,06,32,0.60
2017,12,09,06,33,0.50
2017,12,09,06,34,0.50
2017,12,09,06,35,0.50
2017,12,09,06,36,0.50
2017,12,09,06,37,0.50
2017,12,09,06,38,0.50
2017,12,09,06,39,0.50
2017,12,09,06,40,0.60
2017,12,09,06,41,0.60
2017,12,09,06,42,0.60
2017,12,09,06,43,0.70
2017,12,09,06,44,0.70
2017,12,09,06,45,0.70
2017,12,09,06,46,0.70
2017,12,09,06,47,0.70
2017,12,09,06,48,0.70
2017,12,09,06,49,0.80
2017,12,09,06,50,0.80
2017,12,09,06,51,0.80
2017,12,09,06,52,0.80
2017,12,09,06,53,0.80
2017,12,09,06,54,0.80
2017,12,09,06,55,0.80
2017,12,09,06,56,0.80
2017,12,09,06,57,0.80
2017,12,09,06,58,0.80
2017,12,09,06,59,0.90
2017,12,09,07,00,0.90
2017,12,09,07,01,1.00
2017,12,09,07,02,1.00
2017,12,09,07,03,1.10
2017,12,09,07,04,1.10
2017,12,09,07,05,1.20
2017,12,09,07,06,1.20
2017,12,09,07,07,1.30
2017,12,09,07,08,1.30
2017,12,09,07,09,1.30
2017,12,09,07,10,1.30
2017,12,09,07,11,1.40
2017,12,09,07,12,1.40
2017,12,09,07,13,1.40
2017,12,09,07,14,1.40
2017,12,09,07,15,1.40
2017,12,09,07,16,1.40
2017,12,09,07,17,1.40
2017,12,09,07,18,1.30
2017,12,09,07,19,1.30
2017,12,09,07,20,1.30
2017,12,09,07,21,1.30
2017,12,09,07,22,1.30
2017,12,09,07,23,1.30
2017,12,09,07,24,1.30
2017,12,09,07,25,1.30
2017,12,09,07,26,1.30
2017,12,09,07,27,1.30
2017,12,09,07,28,1.30
2017,12,09,07,29,1.30
2017,12,09,07,30,1.30
2017,12,09,07,31,1.30
2017,12,09,07,32,1.30
2017,12,09,07,33,1.30
2017,12,09,07,34,1.30
2017,12,09,07,35,1.20
2017,12,09,07,36,1.20
2017,12,09,07,37,1.20
2017,12,09,07,38,1.20
2017,12,09,07,39,1.20
2017,12,09,07,40,1.20
2017,12,09,07,41,1.30
2017,12,09,07,42,1.30
2017,12,09,07,43,1.30
2017,12,09,07,44,1.30
2017,12,09,07,45,1.30
2017,12,09,07,46,1.30
2017,12,09,07,47,1.30
2017,12,09,07,48,1.30
2017,12,09,07,49,1.20
2017,12,09,07,50,1.20
2017,12,09,07,51,1.20
2017,12,09,07,52,1.20
2017,12,09,07,53,1.20
2017,12,09,07,54,1.10
2017,12,09,07,55,1.10
2017,12,09,07,56,1.10
2017,12,09,07,57,1.10
2017,12,09,07,58,1.00
2017,12,09,07,59,1.00
2017,12,09,08,00,0.90
2017,12,09,08,01,0.90
2017,12,09,08,02,0.90
2017,12,09,08,03,0.90
2017,12,09,08,04,0.90
2017,12,09,08,05,0.80
2017,12,09,08,06,0.80
2017,12,09,08,07,0.80
2017,12,09,08,08,0.80
2017,12,09,08,09,0.80
2017,12,09,08,10,0.80
2017,12,09,08,11,0.80
2017,12,09,08,12,0.80
2017,12,09,08,13,0.70
2017,12,09,08,14,0.70
2017,12,09,08,15,0.70
2017,12,09,08,16,0.70
2017,12,09,08,17,0.70
2017,12,09,08,18,0.60
2017,12,09,08,19,0.60
2017,12,09,08,20,0.60
2017,12,09,08,21,0.60
2017,12,09,08,22,0.60
2017,12,09,08,23,0.60
2017,12,09,08,24,0.60
2017,12,09,08,25,0.60
2017,12,09,08,26,0.60
2017,12,09,08,27,0.60
2017,12,09,08,28,0.50
2017,12,09,08,29,0.50
2017,12,09,08,30,0.40
2017,12,09,08,31,0.40
2017,12,09,08,32,0.30
2017,12,09,08,33,0.30
2017,12,09,08,34,0.20
2017,12,09,08,35,0.20
2017,12,09,08,36,0.20
2017,12,09,08,37,0.10
2017,12,09,08,38,0.10
2017,12,09,08,39,0.10
2017,12,09,08,40,0.10
2017,12,09,08,41,0.10
2017,12,09,08,42,0.20
2017,12,09,08,43,0.20
2017,12,09,08,44,0.20
2017,12,09,08,45,0.20
2017,12,09,08,46,0.20
2017,12,09,08,47,0.20
2017,12,09,08,48,0.20
2017,12,09,08,49,0.20
2017,12,09,08,50,0.20
2017,12,09,08,51,0.20
2017,12,09,08,52,0.20
2017,12,09,08,53,0.20
2017,12,09,08,54,0.10
2017,12,09,08,55,0.10
2017,12,09,08,56,0.10
2017,12,09,08,57,0.10
2017,12,09,08,58,0.10
2017,12,09,08,59,0.10
2017,12,09,09,00,0.20
2017,12,09,09,01,0.20
2017,12,09,09,02,0.20
2017,12,09,09,03,0.30
2017,12,09,09,04,0.30
2017,12,09,09,05,0.30
2017,12,09,09,06,0.40
2017,12,09,09,07,0.50
2017,12,09,09,08,0.50
2017,12,09,09,09,0.60
2017,12,09,09,10,0.70
2017,12,09,09,11,0.80
2017,12,09,09,12,0.80
2017,12,09,09,13,0.90
2017,12,09,09,14,0.90
2017,12,09,09,15,0.90
2017,12,09,09,16,1.00
2017,12,09,09,17,1.00
2017,12,09,09,18,1.00
2017,12,09,09,19,1.10
2017,12,09,09,20,1.10
2017,12,09,09,21,1.10
2017,12,09,09,22,1.10
2017,12,09,09,23,1.20
2017,12,09,09,24,1.20
2017,12,09,09,25,1.20
2017,12,09,09,26,1.20
2017,12,09,09,27,1.20
2017,12,09,09,28,1.20
2017,12,09,09,29,1.20
2017,12,09,09,30,1.20
2017,12,09,09,31,1.20
2017,12,09,09,32,1.20
2017,12,09,09,33,1.20
2017,12,09,09,34,1.30
2017,12,09,09,35,1.30
2017,12,09,09,36,1.30
2017,12,09,09,37,1.30
2017,12,09,09,38,1.40
2017,12,09,09,39,1.40
2017,12,09,09,40,1.40
2017,12,09,09,41,1.40
2017,12,09,09,42,1.50
2017,12,09,09,43,1.50
2017,12,09,09,44,1.50
2017,12,09,09,45,1.50
2017,12,09,09,46,1.60
2017,12,09,09,47,1.60
2017,12,09,09,48,1.60
2017,12,09,09,49,1.70
2017,12,09,09,50,1.70
2017,12,09,09,51,1.70
2017,12,09,09,52,1.80
2017,12,09,09,53,1.80
2017,12,09,09,54,1.80
2017,12,09,09,55,1.90
2017,12,09,09,56,1.90
2017,12,09,09,57,1.90
2017,12,09,09,58,2.00
2017,12,09,09,59,2.00
2017,12,09,10,00,2.10
2017,12,09,10,01,2.10
2017,12,09,10,02,2.20
2017,12,09,10,03,2.20
2017,12,09,10,04,2.20
2017,12,09,10,05,2.30
2017,12,09,10,06,2.30
2017,12,09,10,07,2.30
2017,12,09,10,08,2.40
2017,12,09,10,09,2.40
2017,12,09,10,10,2.40
2017,12,09,10,11,2.50
2017,12,09,10,12,2.50
2017,12,09,10,13,2.50
2017,12,09,10,14,2.60
2017,12,09,10,15,2.60
2017,12,09,10,16,2.60
2017,12,09,10,17,2.70
2017,12,09,10,18,2.70
2017,12,09,10,19,2.70
2017,12,09,10,20,2.70
2017,12,09,10,21,2.80
2017,12,09,10,22,2.80
2017,12,09,10,23,2.80
2017,12,09,10,24,2.80
2017,12,09,10,25,2.90
2017,12,09,10,26,2.90
2017,12,09,10,27,2.90
2017,12,09,10,28,3.00
2017,12,09,10,29,3.00
2017,12,09,10,30,3.00
2017,12,09,10,31,3.10
2017,12,09,10,32,3.10
2017,12,09,10,33,3.10
2017,12,09,10,34,3.10
2017,12,09,10,35,3.10
2017,12,09,10,36,3.10
2017,12,09,10,37,3.10
2017,12,09,10,38,3.10
2017,12,09,10,39,3.20
2017,12,09,10,40,3.20
2017,12,09,10,41,3.20
2017,12,09,10,42,3.20
2017,12,09,10,43,3.20
2017,12,09,10,44,3.30
2017,12,09,10,45,3.30
2017,12,09,10,46,3.30
2017,12,09,10,47,3.40
2017,12,09,10,48,3.40
2017,12,09,10,49,3.40
2017,12,09,10,50,3.50
2017,12,09,10,51,3.50
2017,12,09,10,52,3.60
2017,12,09,10,53,3.60
2017,12,09,10,54,3.60
2017,12,09,10,55,3.60
2017,12,09,10,56,3.70
2017,12,09,10,57,3.70
2017,12,09,10,58,3.70
2017,12,09,10,59,3.80
2017,12,09,11,00,3.80
2017,12,09,11,01,3.80
2017,12,09,11,02,3.80
2017,12,09,11,03,3.90
2017,12,09,11,04,3.90
2017,12,09,11,05,3.90
2017,12,09,11,06,4.00
2017,12,09,11,07,4.00
2017,12,09,11,08,4.10
2017,12,09,11,09,4.10
2017,12,09,11,10,4.10
2017,12,09,11,11,4.20
2017,12,09,11,12,4.20
2017,12,09,11,13,4.30
2017,12,09,11,14,4.30
2017,12,09,11,15,4.30
2017,12,09,11,16,4.30
2017,12,09,11,17,4.40
2017,12,09,11,18,4.40
2017,12,09,11,19,4.40
2017,12,09,11,20,4.40
2017,12,09,11,21,4.50
2017,12,09,11,22,4.50
2017,12,09,11,23,4.50
2017,12,09,11,24,4.60
2017,12,09,11,25,4.60
2017,12,09,11,26,4.60
2017,12,09,11,27,4.60
2017,12,09,11,28,4.70
2017,12,09,11,29,4.70
2017,12,09,11,30,4.80
2017,12,09,11,31,4.80
2017,12,09,11,32,4.80
2017,12,09,11,33,4.90
2017,12,09,11,34,4.90
2017,12,09,11,35,4.90
2017,12,09,11,36,5.00
2017,12,09,11,37,5.00
2017,12,09,11,38,5.00
2017,12,09,11,39,5.10
2017,12,09,11,40,5.10
2017,12,09,11,41,5.20
2017,12,09,11,42,5.20
2017,12,09,11,43,5.30
2017,12,09,11,44,5.30
2017,12,09,11,45,5.40
2017,12,09,11,46,5.40
2017,12,09,11,47,5.50
2017,12,09,11,48,5.50
2017,12,09,11,49,5.50
2017,12,09,11,50,5.60
2017,12,09,11,51,5.60
2017,12,09,11,52,5.70
2017,12,09,11,53,5.70
2017,12,09,11,54,5.70
2017,12,09,11,55,5.80
2017,12,09,11,56,5.80
2017,12,09,11,57,5.90
2017,12,09,11,58,5.90
2017,12,09,11,59,5.90
2017,12,09,12,00,6.00
2017,12,09,12,01,6.00
2017,12,09,12,02,6.00
2017,12,09,12,03,6.10
2017,12,09,12,04,6.10
2017,12,09,12,05,6.10
2017,12,09,12,06,6.10
2017,12,09,12,07,6.10
2017,12,09,12,08,6.10
2017,12,09,12,09,6.10
2017,12,09,12,10,6.10
2017,12,09,12,11,6.10
2017,12,09,12,12,6.10
2017,12,09,12,13,6.10
2017,12,09,12,14,6.20
2017,12,09,12,15,6.20
2017,12,09,12,16,6.20
2017,12,09,12,17,6.20
2017,12,09,12,18,6.20
2017,12,09,12,19,6.20
2017,12,09,12,20,6.20
2017,12,09,12,21,6.30
2017,12,09,12,22,6.30
2017,12,09,12,23,6.30
2017,12,09,12,24,6.30
2017,12,09,12,25,6.30
2017,12,09,12,26,6.40
2017,12,09,12,27,6.40
2017,12,09,12,28,6.40
2017,12,09,12,29,6.40
2017,12,09,12,30,6.30
2017,12,09,12,31,6.30
2017,12,09,12,32,6.30
2017,12,09,12,33,6.30
2017,12,09,12,34,6.30
2017,12,09,12,35,6.30
2017,12,09,12,36,6.30
2017,12,09,12,37,6.30
2017,12,09,12,38,6.40
2017,12,09,12,39,6.40
2017,12,09,12,40,6.40
2017,12,09,12,41,6.40
2017,12,09,12,42,6.40
2017,12,09,12,43,6.40
2017,12,09,12,44,6.50
2017,12,09,12,45,6.50
2017,12,09,12,46,6.50
2017,12,09,12,47,6.60
2017,12,09,12,48,6.60
2017,12,09,12,49,6.70
2017,12,09,12,50,6.70
2017,12,09,12,51,6.80
2017,12,09,12,52,6.80
2017,12,09,12,53,6.80
2017,12,09,12,54,6.80
2017,12,09,12,55,6.80
2017,12,09,12,56,6.80
2017,12,09,12,57,6.80
2017,12,09,12,58,6.80
2017,12,09,12,59,6.80
2017,12,09,13,00,6.80
2017,12,09,13,01,6.80
2017,12,09,13,02,6.80
2017,12,09,13,03,6.80
2017,12,09,13,04,6.80
2017,12,09,13,05,6.80
2017,12,09,13,06,6.90
2017,12,09,13,07,6.90
2017,12,09,13,08,6.90
2017,12,09,13,09,6.90
2017,12,09,13,10,6.90
2017,12,09,13,11,7.00
2017,12,09,13,12,7.00
2017,12,09,13,13,7.00
2017,12,09,13,14,7.00
2017,12,09,13,15,7.10
2017,12,09,13,16,7.10
2017,12,09,13,17,7.10
2017,12,09,13,18,7.10
2017,12,09,13,19,7.20
2017,12,09,13,20,7.20
2017,12,09,13,21,7.20
2017,12,09,13,22,7.30
2017,12,09,13,23,7.30
2017,12,09,13,24,7.30
2017,12,09,13,25,7.30
2017,12,09,13,26,7.40
2017,12,09,13,27,7.40
2017,12,09,13,28,7.50
2017,12,09,13,29,7.50
2017,12,09,13,30,7.50
2017,12,09,13,31,7.60
2017,12,09,13,32,7.60
2017,12,09,13,33,7.70
2017,12,09,13,34,7.70
2017,12,09,13,35,7.70
2017,12,09,13,36,7.70
2017,12,09,13,37,7.80
2017,12,09,13,38,7.80
2017,12,09,13,39,7.80
2017,12,09,13,40,7.90
2017,12,09,13,41,7.90
2017,12,09,13,42,7.90
2017,12,09,13,43,7.90
2017,12,09,13,44,7.90
2017,12,09,13,45,8.00
2017,12,09,13,46,8.00
2017,12,09,13,47,8.00
2017,12,09,13,48,8.00
2017,12,09,13,49,8.00
2017,12,09,13,50,8.00
2017,12,09,13,51,8.00
2017,12,09,13,52,7.90
2017,12,09,13,53,7.90
2017,12,09,13,54,7.90
2017,12,09,13,55,7.90
2017,12,09,13,56,7.90
2017,12,09,13,57,7.90
2017,12,09,13,58,7.90
2017,12,09,13,59,7.90
2017,12,09,14,00,7.80
2017,12,09,14,01,7.80
2017,12,09,14,02,7.80
2017,12,09,14,03,7.80
2017,12,09,14,04,7.80
2017,12,09,14,05,7.80
2017,12,09,14,06,7.80
2017,12,09,14,07,7.80
2017,12,09,14,08,7.80
2017,12,09,14,09,7.90
2017,12,09,14,10,7.90
2017,12,09,14,11,7.90
2017,12,09,14,12,7.90
2017,12,09,14,13,7.90
2017,12,09,14,14,7.90
2017,12,09,14,15,8.00
2017,12,09,14,16,8.00
2017,12,09,14,17,8.00
2017,12,09,14,18,8.00
2017,12,09,14,19,8.00
2017,12,09,14,20,8.10
2017,12,09,14,21,8.10
2017,12,09,14,22,8.10
2017,12,09,14,23,8.10
2017,12,09,14,24,8.10
2017,12,09,14,25,8.10
2017,12,09,14,26,8.10
2017,12,09,14,27,8.00
2017,12,09,14,28,8.00
2017,12,09,14,29,8.00
2017,12,09,14,30,8.00
2017,12,09,14,31,8.00
2017,12,09,14,32,7.90
2017,12,09,14,33,7.90
2017,12,09,14,34,7.90
2017,12,09,14,35,7.90
2017,12,09,14,36,7.80
2017,12,09,14,37,7.80
2017,12,09,14,38,7.80
2017,12,09,14,39,7.80
2017,12,09,14,40,7.80
2017,12,09,14,41,7.80
2017,12,09,14,42,7.80
2017,12,09,14,43,7.80
2017,12,09,14,44,7.80
2017,12,09,14,45,7.80
2017,12,09,14,46,7.80
2017,12,09,14,47,7.80
2017,12,09,14,48,7.80
2017,12,09,14,49,7.80
2017,12,09,14,50,7.80
2017,12,09,14,51,7.80
2017,12,09,14,52,7.80
2017,12,09,14,53,7.80
2017,12,09,14,54,7.80
2017,12,09,14,55,7.80
2017,12,09,14,56,7.80
2017,12,09,14,57,7.80
2017,12,09,14,58,7.80
2017,12,09,14,59,7.80
2017,12,09,15,00,7.90
2017,12,09,15,01,7.90
2017,12,09,15,02,7.90
2017,12,09,15,03,7.90
2017,12,09,15,04,7.90
2017,12,09,15,05,7.90
2017,12,09,15,06,7.90
2017,12,09,15,07,7.90
2017,12,09,15,08,7.90
2017,12,09,15,09,7.90
2017,12,09,15,10,7.90
2017,12,09,15,11,7.80
2017,12,09,15,12,7.80
2017,12,09,15,13,7.80
2017,12,09,15,14,7.80
2017,12,09,15,15,7.80
2017,12,09,15,16,7.80
2017,12,09,15,17,7.80
2017,12,09,15,18,7.80
2017,12,09,15,19,7.80
2017,12,09,15,20,7.80
2017,12,09,15,21,7.80
2017,12,09,15,22,7.80
2017,12,09,15,23,7.70
2017,12,09,15,24,7.70
2017,12,09,15,25,7.70
2017,12,09,15,26,7.70
2017,12,09,15,27,7.70
2017,12,09,15,28,7.70
2017,12,09,15,29,7.70
2017,12,09,15,30,7.70
2017,12,09,15,31,7.70
2017,12,09,15,32,7.70
2017,12,09,15,33,7.70
2017,12,09,15,34,7.70
2017,12,09,15,35,7.60
2017,12,09,15,36,7.60
2017,12,09,15,37,7.60
2017,12,09,15,38,7.60
2017,12,09,15,39,7.60
2017,12,09,15,40,7.60
2017,12,09,15,41,7.50
2017,12,09,15,42,7.50
2017,12,09,15,43,7.50
2017,12,09,15,44,7.40
2017,12,09,15,45,7.40
2017,12,09,15,46,7.40
2017,12,09,15,47,7.40
2017,12,09,15,48,7.40
2017,12,09,15,49,7.30
2017,12,09,15,50,7.30
2017,12,09,15,51,7.30
2017,12,09,15,52,7.30
2017,12,09,15,53,7.20
2017,12,09,15,54,7.20
2017,12,09,15,55,7.20
2017,12,09,15,56,7.20
2017,12,09,15,57,7.20
2017,12,09,15,58,7.10
2017,12,09,15,59,7.10
2017,12,09,16,00,7.10
2017,12,09,16,01,7.00
2017,12,09,16,02,7.00
2017,12,09,16,03,6.90
2017,12,09,16,04,6.90
2017,12,09,16,05,6.90
2017,12,09,16,06,6.90
2017,12,09,16,07,6.80
2017,12,09,16,08,6.80
2017,12,09,16,09,6.80
2017,12,09,16,10,6.80
2017,12,09,16,11,6.80
2017,12,09,16,12,6.70
2017,12,09,16,13,6.70
2017,12,09,16,14,6.70
2017,12,09,16,15,6.60
2017,12,09,16,16,6.60
2017,12,09,16,17,6.50
2017,12,09,16,18,6.50
2017,12,09,16,19,6.50
2017,12,09,16,20,6.40
2017,12,09,16,21,6.40
2017,12,09,16,22,6.40
2017,12,09,16,23,6.30
2017,12,09,16,24,6.30
2017,12,09,16,25,6.30
2017,12,09,16,26,6.30
2017,12,09,16,27,6.30
2017,12,09,16,28,6.30
2017,12,09,16,29,6.20
2017,12,09,16,30,6.20
2017,12,09,16,31,6.20
2017,12,09,16,32,6.20
2017,12,09,16,33,6.20
2017,12,09,16,34,6.20
2017,12,09,16,35,6.10
2017,12,09,16,36,6.10
2017,12,09,16,37,6.10
2017,12,09,16,38,6.00
2017,12,09,16,39,6.00
2017,12,09,16,40,5.90
2017,12,09,16,41,5.90
2017,12,09,16,42,5.90
2017,12,09,16,43,5.90
2017,12,09,16,44,5.80
2017,12,09,16,45,5.80
2017,12,09,16,46,5.80
2017,12,09,16,47,5.80
2017,12,09,16,48,5.80
2017,12,09,16,49,5.70
2017,12,09,16,50,5.70
2017,12,09,16,51,5.70
2017,12,09,16,52,5.70
2017,12,09,16,53,5.70
2017,12,09,16,54,5.70
2017,12,09,16,55,5.70
2017,12,09,16,56,5.60
2017,12,09,16,57,5.60
2017,12,09,16,58,5.70
2017,12,09,16,59,5.70
2017,12,09,17,00,5.60
2017,12,09,17,01,5.60
2017,12,09,17,02,5.60
2017,12,09,17,03,5.60
2017,12,09,17,04,5.50
2017,12,09,17,05,5.40
2017,12,09,17,06,5.40
2017,12,09,17,07,5.30
2017,12,09,17,08,5.30
2017,12,09,17,09,5.30
2017,12,09,17,10,5.30
2017,12,09,17,11,5.20
2017,12,09,17,12,5.20
2017,12,09,17,13,5.20
2017,12,09,17,14,5.20
2017,12,09,17,15,5.20
2017,12,09,17,16,5.10
2017,12,09,17,17,5.10
2017,12,09,17,18,5.10
2017,12,09,17,19,5.10
2017,12,09,17,20,5.10
2017,12,09,17,21,5.10
2017,12,09,17,22,5.10
2017,12,09,17,23,5.10
2017,12,09,17,24,5.10
2017,12,09,17,25,5.10
2017,12,09,17,26,5.10
2017,12,09,17,27,5.10
2017,12,09,17,28,5.10
2017,12,09,17,29,5.10
2017,12,09,17,30,5.10
2017,12,09,17,31,5.10
2017,12,09,17,32,5.00
2017,12,09,17,33,5.00
2017,12,09,17,34,4.90
2017,12,09,17,35,4.90
2017,12,09,17,36,4.90
2017,12,09,17,37,4.90
2017,12,09,17,38,4.90
2017,12,09,17,39,4.80
2017,12,09,17,40,4.80
2017,12,09,17,41,4.80
2017,12,09,17,42,4.80
2017,12,09,17,43,4.80
2017,12,09,17,44,4.80
2017,12,09,17,45,4.80
2017,12,09,17,46,4.80
2017,12,09,17,47,4.80
2017,12,09,17,48,4.80
2017,12,09,17,49,4.80
2017,12,09,17,50,4.80
2017,12,09,17,51,4.70
2017,12,09,17,52,4.70
2017,12,09,17,53,4.70
2017,12,09,17,54,4.70
2017,12,09,17,55,4.70
2017,12,09,17,56,4.60
2017,12,09,17,57,4.70
2017,12,09,17,58,4.60
2017,12,09,17,59,4.60
2017,12,09,18,00,4.60
2017,12,09,18,01,4.60
2017,12,09,18,02,4.60
2017,12,09,18,03,4.60
2017,12,09,18,04,4.60
2017,12,09,18,05,4.60
2017,12,09,18,06,4.60